Location: Angwan Shehu
(11.2514°N, 7.4613°E)
Time: 03:11:36
(UTC+00:00)

SMAP - Pass Details

Date: 14 November 2019
Orbit: 682 x 683 km, 98.1° (Epoch: 08 December)

Event Time Altitude Azimuth Distance (km) Brightness Sun altitude
Rises 17:26:17 0° 173° (S) 3,034 6.5 -6.2°
Reaches altitude 10° 17:28:31 10° 176° (S) 2,119 5.8 -6.8°
Maximum altitude 17:33:07 67° 258° (WSW) 739 3.5 -7.8°
Drops below altitude 10° 17:37:44 10° 341° (NNW) 2,119 5.6 -8.9°
Sets 17:39:59 0° 344° (NNW) 3,033 6.4 -9.4°
